AISSAT 1

Last updated on July 6, 2021, 3:39 p.m. UTC

1 36797U 10035C   21187.04283032  .00000254  00000-0  35373-4 0  9998
2 36797  98.2184 353.6609 0010345 210.5022 149.5591 14.86515761595101
UTC
Height (km)
Latitude
Longitude
Inclination
Orbital Period
UTC large
Height (km)
Speed (km/s)
/
Latitude / Longitude
Inclination (degrees)
Orbital Period (minutes)
Azimuth
Elevation
Range (km)
Doppler Factor
iOS Compass Heading
iOS Angle